KUIPER-00113 (65948 NORAD) Tracking and Keplerian Element Data

This shows tracking and keplerian element data for the satellite.

Feedback or suggestion? Click here.




ElementValue
Catalog65948
NameKUIPER-00113
Epoch Orbit541
Epoch Day354.25003472
Epoch Year2025
RAAN348.2934
Inclination51.8899
Eccentricity0.00066
Argument of Perigee52.9117
Mean Anonmoly338.4317
Mean Motion15.00425172
Decay Rate-0.00033343
L11 65948U 25228B 25354.25003472 -.00033343 00000+0 -26125-2 0 9998
L22 65948 51.8899 348.2934 0006600 52.9117 338.4317 15.00425172 5410



Live tracking and technical data element details for KUIPER-00113 (NORAD 65948). KUIPER-00113 can be tracked NOW for your location showing map with azimuth and elevation plus other details from your city location.







IsCatalogInMostPopularTable: catalog: 65948, numindb: 10
Update: records affected: 1



GetName: 65948 KUIPER-00113

Hit Count: updated at: Mon, 20 Apr 2026 10:18:09 GMT